Burlington, VT

3:36 AM EDT on June 29, 2017 (GMT -0400)
Burlington International

Weather History for KBTV - January, 2013

Change the Weather History Date:

Saturday, January 26, 2013

  Actual Average Record
Temperature  
Mean Temperature 9 °F 18 °F  
Max Temperature 15 °F 27 °F 55 °F (1950)
Min Temperature 2 °F 10 °F -25 °F (1994)
Degree Days  
Heating Degree Days 56 47  
Month to date heating degree days 1150 1207  
Since 1 July heating degree days 3555 3966  
Cooling Degree Days 0 0  
Month to date cooling degree days 0 0  
Year to date cooling degree days 0 0  
Moisture  
Dew Point -1 °F    
Average Humidity 63    
Maximum Humidity 80    
Minimum Humidity 46    
Precipitation  
Precipitation T in 0.06 in 1.22 in (1986)
Month to date precipitation 0.30 1.73  
Year to date precipitation 0.30 1.73  
Snow  
Snow 0.10 in 0.70 in 11.20 in (1986)
Month to date snowfall 9.4 17.7  
Since 1 July snowfall 43.9 41.0  
Snow Depth 1.00 in    
Sea Level Pressure  
Sea Level Pressure 30.22 in    
Wind  
Wind Speed 7 mph (North)    
Max Wind Speed 15 mph    
Max Gust Speed 18 mph    
Visibility 10 miles    
Events Snow    
T = Trace of Precipitation, MM = Missing Value Source: NWS Daily Summary

Daily Weather History Graph

Daily Weather History Graph

Search for Another Location

Airport or City:

Trip Planner

Search our weather history database for the weather conditions in past years. The results will help you decide how hot, cold, wet, or windy it might be!

Date:

Astronomy

Jan. 26, 2013 Rise Set
Actual Time 7:17 AM EST 4:53 PM EST
Civil Twilight 6:45 AM EST 5:25 PM EST
Nautical Twilight 6:10 AM EST 6:00 PM EST
Astronomical Twilight 5:36 AM EST 6:34 PM EST
Moon 4:47 PM EST (1/26) 6:32 AM EST (1/26)
Length of Visible Light 10h 39m
Length of Day
9h 36m
Full, 100% of the Moon is Illuminated
Jan 26
Full
Jan 26
Full
Feb 3
Last Quarter
Feb 10
New
Feb 17
First Quarter

Hourly Weather History & Observations

Time (EST) Temp. Windchill Dew Point Humidity Pressure Visibility Wind Dir Wind Speed Gust Speed Precip Events Conditions
12:54 AM 8.1 °F -3.2 °F 1.9 °F 76% 30.13 in 6.0 mi North 6.9 mph - 0.00 in Snow Light Snow
1:54 AM 7.0 °F -3.3 °F 1.0 °F 77% 30.14 in 9.0 mi North 5.8 mph - 0.00 in Snow Light Snow
2:54 AM 7.0 °F -3.3 °F 1.0 °F 77% 30.13 in 9.0 mi North 5.8 mph - 0.00 in Snow Light Snow
3:54 AM 6.1 °F -5.6 °F -0.0 °F 76% 30.13 in 9.0 mi NNE 6.9 mph - 0.00 in Snow Light Snow
4:54 AM 3.9 °F -6.9 °F -2.0 °F 76% 30.14 in 9.0 mi North 5.8 mph - 0.00 in   Clear
5:54 AM 3.0 °F -6.4 °F -2.9 °F 76% 30.16 in 10.0 mi NE 4.6 mph - N/A   Clear
6:54 AM 1.9 °F -5.6 °F -5.1 °F 72% 30.18 in 10.0 mi NE 3.5 mph - N/A   Clear
7:54 AM 3.0 °F -6.4 °F -5.1 °F 69% 30.19 in 10.0 mi NE 4.6 mph - N/A   Partly Cloudy
8:54 AM 5.0 °F -8.1 °F -5.1 °F 63% 30.21 in 10.0 mi NNE 8.1 mph - N/A   Partly Cloudy
9:54 AM 7.0 °F -3.3 °F -4.0 °F 61% 30.22 in 10.0 mi NNE 5.8 mph - N/A   Partly Cloudy
10:54 AM 9.0 °F -0.9 °F -4.0 °F 56% 30.22 in 10.0 mi NNE 5.8 mph - N/A   Partly Cloudy
11:54 AM 10.9 °F 0.2 °F -4.0 °F 51% 30.21 in 10.0 mi North 6.9 mph - N/A   Clear
12:54 PM 12.0 °F -1.3 °F -5.1 °F 46% 30.20 in 10.0 mi NNW 10.4 mph - N/A   Clear
1:54 PM 14.0 °F 2.0 °F -4.0 °F 45% 30.21 in 10.0 mi NNE 9.2 mph - N/A   Clear
2:54 PM 12.9 °F 1.6 °F -5.1 °F 45% 30.22 in 10.0 mi NNW 8.1 mph - N/A   Overcast
3:54 PM 12.9 °F 1.6 °F -2.9 °F 49% 30.23 in 10.0 mi North 8.1 mph - N/A   Overcast
4:54 PM 12.9 °F 0.7 °F -0.0 °F 56% 30.25 in 10.0 mi North 9.2 mph - N/A   Mostly Cloudy
5:54 PM 12.0 °F 5.9 °F -0.0 °F 59% 30.26 in 10.0 mi North 3.5 mph - N/A   Overcast
6:54 PM 12.9 °F 1.6 °F 1.0 °F 59% 30.27 in 10.0 mi WNW 8.1 mph 18.4 mph N/A   Mostly Cloudy
7:54 PM 12.9 °F -2.2 °F 1.9 °F 62% 30.28 in 10.0 mi NW 13.8 mph 18.4 mph N/A   Mostly Cloudy
8:54 PM 12.0 °F 0.5 °F 1.9 °F 64% 30.29 in 10.0 mi NW 8.1 mph - N/A   Scattered Clouds
9:54 PM 10.9 °F 2.9 °F 1.9 °F 67% 30.30 in 10.0 mi NW 4.6 mph - N/A   Mostly Cloudy
10:54 PM 14.0 °F 2.9 °F 3.9 °F 64% 30.32 in 10.0 mi NNW 8.1 mph - N/A   Overcast
11:54 PM 12.0 °F 1.5 °F 3.0 °F 67% 30.34 in 10.0 mi NNW 6.9 mph - N/A   Mostly Cloudy